User: anonymous   Login
Location: Dal�� Lhota
(48.7500°N, 14.0167°E)
Time: 09:44:37
(UTC+00:00)
Language:

Vanguard 1 - Orbit

View from above orbital plane
View from above orbital plane
View from above satellite
View from above satellite

Ground track
Ground track

The orbit data is extracted from the following two-line orbital elements,

1 00005U 58002B   21211.87673005 -.00000125  00000-0 -13838-3 0  9999
2 00005  34.2474  50.0023 1844570  30.2991 339.2390 10.84824646249618
Epoch (UTC): 30 July 2021 21:02:29
Eccentricity: 0.1844570
inclination: 34.2474°
perigee height: 651 km
apogee height: 3831 km
right ascension of ascending node: 50.0023°
argument of perigee: 30.2991°
revolutions per day: 10.84824646
mean anomaly at epoch: 339.2390°
orbit number at epoch: 24961

The dashed part of the orbit path shows where the satellite is in the earth's shadow,  

DLR